• In Deutschland
  • Länderverzeichnis
  • Für 7 Tage
  • Wassertemperatur
  • Satellitenkarten
  • Wetterkarte
  • Widgets
  • user-avatar
    Anmelden

    Stündliche Wetter Marl

    Heute, 19 September, Mittwoch

    Zeit Temperatur Niederschläge Wind Luftdruck Luftfeuchtigkeit
    00:00 +19°C° 0.1 mm 1 m/S 757 mmHg 78%
    01:00 +18°C° 0 mm 2 m/S 757 mmHg 79%
    02:00 +18°C° 0 mm 2 m/S 757 mmHg 80%
    03:00 +18°C° 0 mm 2 m/S 757 mmHg 81%
    04:00 +18°C° 0 mm 2 m/S 757 mmHg 82%
    05:00 +18°C° 0 mm 2 m/S 757 mmHg 82%
    06:00 +18°C° 0 mm 2 m/S 757 mmHg 83%
    07:00 +20°C° 0 mm 2 m/S 757 mmHg 76%
    08:00 +22°C° 0 mm 3 m/S 757 mmHg 70%
    09:00 +23°C° 0 mm 4 m/S 757 mmHg 63%
    10:00 +25°C° 0 mm 4 m/S 757 mmHg 59%
    11:00 +27°C° 0 mm 5 m/S 757 mmHg 55%
    12:00 +28°C° 0 mm 5 m/S 757 mmHg 51%
    13:00 +28°C° 0 mm 5 m/S 757 mmHg 50%
    14:00 +28°C° 0 mm 5 m/S 757 mmHg 49%
    15:00 +28°C° 0 mm 5 m/S 757 mmHg 48%
    16:00 +26°C° 0 mm 5 m/S 757 mmHg 52%
    17:00 +25°C° 0 mm 4 m/S 757 mmHg 56%
    18:00 +22°C° 0 mm 3 m/S 757 mmHg 60%
    19:00 +22°C° 0 mm 3 m/S 758 mmHg 63%
    20:00 +21°C° 0 mm 3 m/S 758 mmHg 65%
    21:00 +20°C° 0 mm 3 m/S 758 mmHg 68%
    22:00 +20°C° 0 mm 3 m/S 758 mmHg 70%
    23:00 +19°C° 0 mm 3 m/S 758 mmHg 72%

    Morgen, 20 September, Donnerstag

    Zeit Temperatur Niederschläge Wind Luftdruck Luftfeuchtigkeit
    00:00 +19°C° 0 mm 3 m/S 758 mmHg 74%
    01:00 +18°C° 0 mm 3 m/S 758 mmHg 75%
    02:00 +18°C° 0 mm 3 m/S 758 mmHg 77%
    03:00 +18°C° 0 mm 3 m/S 758 mmHg 79%
    04:00 +17°C° 0 mm 3 m/S 758 mmHg 80%
    05:00 +17°C° 0 mm 3 m/S 758 mmHg 81%
    06:00 +17°C° 0 mm 3 m/S 758 mmHg 82%
    07:00 +19°C° 0 mm 3 m/S 758 mmHg 75%
    08:00 +20°C° 0 mm 4 m/S 758 mmHg 69%
    09:00 +22°C° 0 mm 4 m/S 758 mmHg 63%
    10:00 +23°C° 0 mm 5 m/S 758 mmHg 59%
    11:00 +25°C° 0 mm 5 m/S 757 mmHg 55%
    12:00 +26°C° 0 mm 5 m/S 757 mmHg 51%
    13:00 +26°C° 0 mm 5 m/S 757 mmHg 50%
    14:00 +27°C° 0 mm 5 m/S 756 mmHg 49%
    15:00 +27°C° 0 mm 5 m/S 756 mmHg 48%
    16:00 +26°C° 0 mm 4 m/S 755 mmHg 53%
    17:00 +24°C° 0 mm 3 m/S 755 mmHg 57%
    18:00 +22°C° 0 mm 3 m/S 755 mmHg 62%
    19:00 +22°C° 0 mm 3 m/S 755 mmHg 63%
    20:00 +21°C° 0 mm 3 m/S 754 mmHg 64%
    21:00 +21°C° 0 mm 3 m/S 754 mmHg 65%
    22:00 +21°C° 0 mm 4 m/S 753 mmHg 63%
    23:00 +21°C° 0 mm 4 m/S 753 mmHg 61%

    übermorgen, 21 September, Freitag

    Zeit Temperatur Niederschläge Wind Luftdruck Luftfeuchtigkeit
    00:00 +21°C° 0 mm 5 m/S 752 mmHg 59%
    01:00 +21°C° 0 mm 5 m/S 751 mmHg 57%
    02:00 +21°C° 0 mm 5 m/S 750 mmHg 56%
    03:00 +21°C° 0 mm 6 m/S 750 mmHg 55%
    04:00 +22°C° 0 mm 6 m/S 749 mmHg 54%
    05:00 +22°C° 0 mm 6 m/S 748 mmHg 53%
    06:00 +22°C° 0 mm 6 m/S 748 mmHg 52%
    07:00 +22°C° 0.1 mm 7 m/S 747 mmHg 52%
    08:00 +22°C° 0.1 mm 8 m/S 747 mmHg 52%
    09:00 +23°C° 0.1 mm 9 m/S 747 mmHg 52%
    10:00 +20°C° 2 mm 8 m/S 747 mmHg 61%
    11:00 +17°C° 2 mm 7 m/S 748 mmHg 71%
    12:00 +15°C° 2 mm 6 m/S 748 mmHg 80%
    13:00 +14°C° 1.5 mm 6 m/S 749 mmHg 76%
    14:00 +14°C° 1.5 mm 5 m/S 750 mmHg 73%
    15:00 +14°C° 1.5 mm 5 m/S 750 mmHg 69%
    16:00 +13°C° 0 mm 5 m/S 751 mmHg 67%
    17:00 +13°C° 0 mm 5 m/S 752 mmHg 65%
    18:00 +12°C° 0 mm 5 m/S 752 mmHg 63%
    19:00 +11°C° 0 mm 6 m/S 753 mmHg 61%
    20:00 +11°C° 0 mm 6 m/S 753 mmHg 59%
    21:00 +11°C° 0 mm 6 m/S 754 mmHg 56%
    22:00 +11°C° 0.1 mm 6 m/S 755 mmHg 59%
    23:00 +11°C° 0.1 mm 6 m/S 755 mmHg 62%

    22 September, Samstag

    Zeit Temperatur Niederschläge Wind Luftdruck Luftfeuchtigkeit
    00:00 +11°C° 0.1 mm 7 m/S 756 mmHg 64%
    01:00 +10°C° 0 mm 6 m/S 757 mmHg 66%
    02:00 +10°C° 0 mm 6 m/S 757 mmHg 67%
    03:00 +10°C° 0 mm 5 m/S 758 mmHg 69%
    04:00 +10°C° 0 mm 5 m/S 758 mmHg 69%
    05:00 +10°C° 0 mm 6 m/S 759 mmHg 70%
    06:00 +10°C° 0 mm 6 m/S 759 mmHg 70%
    07:00 +11°C° 0 mm 6 m/S 759 mmHg 66%
    08:00 +12°C° 0 mm 7 m/S 759 mmHg 61%
    09:00 +14°C° 0 mm 7 m/S 760 mmHg 57%
    10:00 +15°C° 0.1 mm 7 m/S 760 mmHg 54%
    11:00 +15°C° 0.1 mm 7 m/S 760 mmHg 51%
    12:00 +16°C° 0.1 mm 7 m/S 760 mmHg 47%
    13:00 +16°C° 0.1 mm 6 m/S 760 mmHg 46%
    14:00 +16°C° 0.1 mm 6 m/S 760 mmHg 45%
    15:00 +16°C° 0.1 mm 6 m/S 760 mmHg 44%
    16:00 +15°C° 0 mm 5 m/S 760 mmHg 48%
    17:00 +14°C° 0 mm 4 m/S 760 mmHg 53%
    18:00 +12°C° 0 mm 3 m/S 760 mmHg 57%
    19:00 +13°C° 0 mm 2 m/S 761 mmHg 58%
    20:00 +13°C° 0 mm 2 m/S 761 mmHg 60%
    21:00 +12°C° 0 mm 1 m/S 761 mmHg 61%
    22:00 +12°C° 0 mm 2 m/S 760 mmHg 63%
    23:00 +12°C° 0 mm 2 m/S 759 mmHg 64%

    23 September, Sonntag

    Zeit Temperatur Niederschläge Wind Luftdruck Luftfeuchtigkeit
    00:00 +12°C° 0 mm 2 m/S 759 mmHg 66%
    01:00 +12°C° 0.1 mm 2 m/S 758 mmHg 68%
    02:00 +11°C° 0.1 mm 3 m/S 757 mmHg 70%
    03:00 +11°C° 0.1 mm 3 m/S 756 mmHg 72%
    04:00 +11°C° 0.9 mm 4 m/S 755 mmHg 75%
    05:00 +10°C° 0.9 mm 5 m/S 753 mmHg 78%
    06:00 +10°C° 0.9 mm 6 m/S 752 mmHg 81%
    07:00 +10°C° 1.2 mm 6 m/S 751 mmHg 80%
    08:00 +10°C° 1.2 mm 6 m/S 749 mmHg 79%
    09:00 +10°C° 1.2 mm 6 m/S 747 mmHg 78%
    10:00 +14°C° 0 mm 7 m/S 746 mmHg 71%
    11:00 +16°C° 0 mm 8 m/S 744 mmHg 65%
    12:00 +19°C° 0 mm 9 m/S 742 mmHg 58%
    13:00 +18°C° 1 mm 8 m/S 741 mmHg 64%
    14:00 +18°C° 1 mm 8 m/S 740 mmHg 70%
    15:00 +17°C° 1 mm 8 m/S 738 mmHg 76%
    16:00 +16°C° 0.3 mm 8 m/S 737 mmHg 71%
    17:00 +15°C° 0.3 mm 8 m/S 736 mmHg 67%
    18:00 +12°C° 0.3 mm 9 m/S 735 mmHg 63%
    19:00 +12°C° 0.4 mm 9 m/S 734 mmHg 67%
    20:00 +12°C° 0.4 mm 9 m/S 733 mmHg 72%
    21:00 +11°C° 0.4 mm 9 m/S 732 mmHg 76%
    22:00 +11°C° 0.7 mm 9 m/S 733 mmHg 78%
    23:00 +11°C° 0.7 mm 9 m/S 734 mmHg 81%

    24 September, Montag

    Zeit Temperatur Niederschläge Wind Luftdruck Luftfeuchtigkeit
    00:00 +12°C° 0.7 mm 9 m/S 735 mmHg 83%
    01:00 +11°C° 0.3 mm 10 m/S 738 mmHg 82%
    02:00 +11°C° 0.3 mm 11 m/S 740 mmHg 81%
    03:00 +11°C° 0.3 mm 11 m/S 742 mmHg 80%
    04:00 +11°C° 0.7 mm 11 m/S 744 mmHg 80%
    05:00 +11°C° 0.7 mm 11 m/S 746 mmHg 79%
    06:00 +9°C° 0.7 mm 10 m/S 748 mmHg 78%
    07:00 +9°C° 0.5 mm 10 m/S 750 mmHg 76%
    08:00 +11°C° 0.5 mm 10 m/S 751 mmHg 74%
    09:00 +11°C° 0.5 mm 10 m/S 753 mmHg 72%
    10:00 +11°C° 0.5 mm 10 m/S 754 mmHg 71%
    11:00 +11°C° 0.5 mm 10 m/S 755 mmHg 71%
    12:00 +11°C° 0.5 mm 10 m/S 756 mmHg 70%
    13:00 +11°C° 0.5 mm 9 m/S 757 mmHg 69%
    14:00 +12°C° 0.5 mm 9 m/S 758 mmHg 68%
    15:00 +12°C° 0.5 mm 9 m/S 759 mmHg 67%
    16:00 +11°C° 0.2 mm 8 m/S 760 mmHg 69%
    17:00 +10°C° 0.2 mm 7 m/S 761 mmHg 70%
    18:00 +10°C° 0.2 mm 7 m/S 761 mmHg 72%
    19:00 +9°C° 0 mm 6 m/S 762 mmHg 73%
    20:00 +9°C° 0 mm 6 m/S 763 mmHg 74%
    21:00 +8°C° 0 mm 5 m/S 764 mmHg 74%
    22:00 +8°C° 0 mm 5 m/S 764 mmHg 74%
    23:00 +8°C° 0 mm 5 m/S 764 mmHg 73%
    Mehr zeigen